Inquirer Daily News

Weather

Get conditions and forecasts for any City, State, ZIP code or Country:  
Trenton, NJ
on Monday, January 28, 2013

Monday
Previous Day Next Day
Daily Summary
 ActualAverageRecord
Temperature
Mean Temperature °F 31°F  
Max Temperature 35°F 39°F 64°F (1916)
Min Temperature 21°F 24°F -2°F (1935)
Degree Days
Heating Degree Days 37 34  
Month to date heating degree days 896 951  
Since 1 July heating degree days 2654 2846  
Cooling Degree Days 0 0  
Month to date cooling degree days 0 0  
Year to date cooling degree days 0 0  
Moisture
Dew Point 28°F   
Average Humidity 84    
Maximum Humidity 100    
Minimum Humidity 68    
Precipitation
Precipitation 0.13 in 0.11 in 2.20 in (1994)
Month to date precipitation 1.83 2.88  
Year to date precipitation 1.83 2.88  
Wind
Wind Speed 4 mph   
Max Wind Speed 14 mph   
Max Gust Speed 16 mph   
Visibility 3 miles   
Events Rain , Snow   

Key: T is trace of precipitation, MM is missing value
Source: NWS Daily Summary
Time(EST)TemperatureDew PointHumidity Pressure Visibility Wind DirectionWind SpeedGust SpeedPrecipitationEvents Conditions
12:53 AM 23.0°F 15.1°F 72% 30.48 in 8.0 miles Calm Calm - N/A   Clear
1:53 AM 23.0°F 16.0°F 74% 30.46 in 8.0 miles Calm Calm - N/A   Clear
2:53 AM 24.1°F 16.0°F 71% 30.44 in 8.0 miles Calm Calm - N/A   Clear
3:53 AM 25.0°F 18.0°F 75% 30.43 in 7.0 miles Calm Calm - N/A   Overcast
4:53 AM 25.0°F 19.0°F 78% 30.41 in 7.0 miles Calm Calm - N/A   Overcast
5:53 AM 27.0°F 19.9°F 75% 30.39 in 7.0 miles Calm Calm - N/A   Overcast
6:53 AM 27.0°F 19.9°F 75% 30.41 in 7.0 miles Calm Calm - N/A   Overcast
7:53 AM 28.0°F 19.9°F 72% 30.38 in 5.0 miles SSW 3.5 mph - N/A   Haze
8:30 AM 28.4°F 21.2°F 74% 30.41 in 1.8 miles SW 3.5 mph - 0.00 in Snow Light Snow
8:53 AM 28.0°F 23.0°F 81% 30.39 in 1.2 miles SSW 4.6 mph - 0.00 in Snow Light Snow
9:05 AM 28.4°F 24.8°F 86% 30.38 in 1.2 miles South 5.8 mph - 0.00 in Snow Light Snow
9:53 AM 30.0°F 27.0°F 88% 30.34 in 1.8 miles South 6.9 mph - 0.01 in Snow Light Snow
10:04 AM 30.2°F 26.6°F 86% 30.35 in 1.2 miles South 6.9 mph - 0.00 in Snow Light Snow
10:50 AM 30.2°F 28.4°F 93% 30.34 in 2.0 miles SW 8.1 mph - 0.00 in   Overcast
10:53 AM 30.9°F 28.0°F 89% 30.34 in 2.5 miles SW 9.2 mph - 0.00 in   Overcast
11:16 AM 32.0°F 28.4°F 87% 30.32 in 3.0 miles SSW 9.2 mph - N/A   Overcast
11:53 AM 33.1°F 28.9°F 85% 30.26 in 3.0 miles SSW 5.8 mph - 0.00 in   Overcast
12:53 PM 33.1°F 30.0°F 89% 30.19 in 3.0 miles SSW 10.4 mph - 0.01 in Rain Light Rain
1:34 PM 33.8°F 30.2°F 87% 30.16 in 2.5 miles SW 8.1 mph - 0.02 in Rain Light Rain
1:50 PM 33.8°F 30.2°F 87% 30.16 in 3.0 miles SW 8.1 mph - 0.02 in Rain Light Rain
1:53 PM 33.1°F 30.9°F 92% 30.15 in 3.0 miles SW 8.1 mph - 0.03 in Rain Light Rain
2:33 PM 33.8°F 30.2°F 87% 30.13 in 2.5 miles SW 6.9 mph - 0.00 in Rain Light Rain
2:53 PM 33.1°F 30.9°F 92% 30.13 in 2.0 miles West 5.8 mph - 0.00 in Rain Light Rain
3:03 PM 33.8°F 30.2°F 87% 30.12 in 1.8 miles SW 6.9 mph - 0.01 in Rain Rain
3:44 PM 33.8°F 32.0°F 93% 30.11 in 1.5 miles West 3.5 mph - 0.06 in Rain Light Rain
3:53 PM 33.1°F 32.0°F 96% 30.10 in 1.8 miles WSW 3.5 mph - 0.06 in Rain Light Rain
4:20 PM 33.8°F 32.0°F 93% 30.10 in 2.0 miles West 4.6 mph - 0.01 in Rain Light Rain
4:39 PM 33.8°F 32.0°F 93% 30.08 in 2.5 miles SW 5.8 mph - 0.01 in Rain Light Rain
4:53 PM 34.0°F 32.0°F 92% 30.08 in 2.5 miles West 4.6 mph - 0.01 in Rain Light Rain
5:20 PM 33.8°F 32.0°F 93% 30.08 in 4.0 miles WSW 4.6 mph - 0.01 in   Overcast
5:53 PM 34.0°F 32.0°F 92% 30.06 in 3.0 miles WSW 6.9 mph - 0.01 in   Overcast
6:53 PM 34.0°F 32.0°F 92% 30.06 in 4.0 miles WSW 4.6 mph - N/A   Overcast
7:53 PM 34.0°F 33.1°F 96% 30.05 in 3.0 miles West 4.6 mph - 0.00 in   Overcast
8:53 PM 34.0°F 33.1°F 96% 30.04 in 2.5 miles West 4.6 mph - N/A   Overcast
9:14 PM 33.8°F 33.8°F 100% 30.04 in 2.5 miles West 3.5 mph - N/A   Overcast
9:21 PM 33.8°F 33.8°F 100% 30.03 in 2.5 miles WSW 3.5 mph - N/A   Overcast
9:53 PM 35.1°F 33.1°F 92% 30.02 in 2.5 miles West 4.6 mph - N/A   Overcast
10:53 PM 35.1°F 33.1°F 92% 30.01 in 2.0 miles WSW 4.6 mph - N/A   Overcast
11:12 PM 35.6°F 33.8°F 93% 30.03 in 2.5 miles Calm Calm - N/A   Overcast
11:53 PM 33.1°F 32.0°F 96% 30.02 in 1.0 miles WSW 4.6 mph - N/A   Mist
11:55 PM 33.8°F 32.0°F 93% 30.03 in 0.8 miles WSW 4.6 mph - N/A   Clear
Astronomy
Sunrise:07:11 AM (EST) Moon Rise:07:05 PM (EST)1/28
Sunset:05:13 PM (EST) Moon Set:07:35 AM (EST)1/28
Moon Phase
Jan. 28 Feb. 03 Feb. 10 Feb. 17 Feb. 25

Copyright © 2014 The Weather Underground, Inc.